Cloud_Cover
0 0 0 0 0 0 0 0 0 5 21 21 0 0 0 1 24 11 0 4 5 66 88 81 32 4 80 100 100 100 100 100 100 100 84 94 100 100 100 100 100 100 100
0 0 0 0 0 0 0 0 1 22 40 54 1 0 0 0 1 23 5 5 5 90 98 100 100 100 100 100 100 100 100 88 33 52 100 100 100 100 100 100 100 100 100
0 0 0 0 0 0 0 0 0 2 15 44 5 5 10 4 10 100 96 40 51 100 100 100 84 100 97 92 75 8 33 95 100 100 95 100 100 100 100 100 100 100 100
0 0 0 0 0 0 0 4 22 44 87 82 42 95 73 18 27 16 21 6 93 78 45 8 99 76 5 48 5 5 13 26 29 5 60 26 100 100 100 100 100 100 100
0 0 0 0 0 0 0 72 55 84 100 100 100 100 100 76 100 35 69 8 67 100 86 8 30 60 56 5 5 76 5 5 75 99 59 76 96 100 100 100 100 100 100
0 0 0 0 0 0 0 12 56 100 100 100 100 100 100 100 100 74 35 100 100 100 11 7 7 100 76 4 5 5 5 5 74 93 89 71 94 23 10 73 98 100 99
0 0 0 0 0 1 70 100 100 100 100 100 100 100 100 100 100 100 80 20 83 39 18 29 100 26 5 5 10 5 8 87 100 30 35 5 4 3 0 0 2 0 34
0 0 0 3 44 57 98 100 100 100 100 100 100 100 100 100 100 100 60 100 90 86 91 97 33 19 20 5 3 1 19 60 18 5 18 1 0 0 0 0 0 0 74
4 3 22 92 100 100 100 100 100 100 100 100 100 100 100 100 100 100 98 96 100 100 80 75 8 5 5 3 0 1 12 9 5 53 76 0 0 0 0 0 0 0 72
26 56 100 97 99 97 100 100 100 100 100 100 100 100 100 100 100 100 100 100 100 84 100 40 10 5 5 5 5 4 5 52 20 60 3 0 3 15 32 80 18 3 19
52 51 74 78 8 100 100 100 100 99 100 100 100 100 100 100 100 100 100 100 85 96 100 13 5 35 5 5 5 5 8 5 6 87 0 14 8 22 94 96 25 3 85
35 44 43 37 9 68 100 100 100 100 99 100 100 100 95 72 100 92 70 99 27 6 5 29 16 49 23 16 10 8 5 5 5 5 11 5 5 9 98 11 16 23 49
75 96 100 51 5 4 88 100 56 100 100 100 100 100 95 100 100 91 72 58 72 77 8 79 100 98 24 68 58 24 93 6 6 5 5 5 29 50 15 5 79 98 95
100 100 37 27 34 84 94 46 100 98 100 100 100 100 100 100 100 100 100 100 100 82 84 100 100 50 24 53 90 24 21 7 5 1 47 100 66 4 63 99 71 35 41
97 86 77 17 78 90 96 91 62 100 67 100 96 71 100 100 87 100 100 99 100 100 100 100 88 49 16 9 6 15 8 6 5 4 43 83 7 18 94 89 14 20 40
100 45 19 80 86 49 59 72 29 100 95 92 100 50 17 51 84 69 30 45 50 80 64 38 13 88 84 74 73 46 5 4 5 4 9 5 92 100 86 19 74 82 97
5 32 63 34 100 100 100 69 94 41 98 52 90 20 85 71 85 27 10 90 15 37 5 73 5 5 5 2 3 2 0 4 1 5 4 32 63 100 81 45 97 74 82
80 26 68 97 100 100 91 100 78 82 67 92 98 47 100 82 9 5 5 2 5 31 5 5 6 5 4 3 43 5 0 0 4 60 22 97 99 100 97 100 94 98 72
74 75 100 100 100 68 100 91 100 80 100 72 96 91 100 45 5 5 7 5 9 5 10 29 5 4 5 91 23 0 0 0 0 7 52 53 100 55 99 100 100 91 21
99 80 100 100 100 98 67 98 100 100 100 100 7 39 7 4 5 8 31 14 48 5 17 93 70 54 100 70 2 0 0 8 32 86 100 45 93 80 92 80 100 100 81
99 76 100 100 100 100 8 91 100 76 60 21 4 16 5 17 6 79 47 26 99 100 100 100 100 100 100 58 0 0 3 30 99 100 100 95 100 100 100 56 82 100 93
100 97 100 100 88 85 6 100 100 51 3 1 5 8 100 5 74 18 5 30 42 34 61 100 100 100 90 0 0 12 52 80 94 100 91 97 100 96 99 84 100 100 66
92 100 95 100 80 59 9 100 100 63 13 0 10 20 52 15 48 57 70 90 60 13 80 100 100 70 0 0 18 88 61 76 99 97 69 99 100 100 62 94 100 100 100
100 98 100 100 100 32 83 100 98 1 2 16 100 80 92 100 56 67 60 91 86 95 100 100 69 0 0 16 92 78 96 75 97 100 98 99 100 54 42 99 100 100 95
100 100 100 100 100 100 99 100 26 74 88 88 100 96 88 12 7 27 95 100 100 100 100 42 0 1 52 99 79 66 84 80 53 68 5 20 45 42 56 93 100 100 77
100 100 100 87 100 100 79 64 51 77 100 100 73 96 82 94 94 100 100 100 100 54 1 0 0 36 100 64 8 92 70 89 46 99 13 5 5 8 44 80 100 100 100